See reports from other nearby stations

Tides Pressure Air temp Water temp Dewpoint Dewpoint depression Visibility Wind speed Wind direction Waves Ship positions

no recent reports received from weather station ID LYUZ

sailing weather and tide predictions

Current Weather: station LYUZ

date/time (UTC)wind fromknots sea level pressurealtimeterstation pressurevisibilityair tempwater tempwave heightnotes
2014-Apr-16 21:30 320 8 0.1-1.0 Snow. Freezing fog.
2014-Apr-16 21:00 310 6 0.1-1.0 Snow. Freezing fog.
2014-Apr-16 20:00 310 7 0.1-0.0 Light snow. Freezing fog.
2014-Apr-16 19:30 310 6 0.1-0.0 Light snow. Freezing fog.
2014-Apr-16 19:00 310 7 0.1-0.0 Light snow. Freezing fog.
2014-Apr-16 18:30 310 8 0.1-0.0 Snow. Freezing fog.
2014-Apr-16 18:00 310 9 0.1-0.0 Snow. Freezing fog.
2014-Apr-16 17:30 310 9 0.1-0.0 Snow. Fog.
2014-Apr-16 17:00 320 8 0.1-0.0 Snow. Fog.
2014-Apr-16 16:30 310 9 0.1-0.0 Snow. Fog.
2014-Apr-16 16:00 310 9 0.1-0.0 Light snow. Fog.
2014-Apr-16 15:30 320 7 0.1-0.0 Light snow. Fog.
2014-Apr-16 15:00 320 8 0.1-0.0 Light snow. Fog.
2014-Apr-16 14:30 330 7 0.1-0.0 Light snow. Fog.
2014-Apr-16 14:00 330 7 0.1-0.0 Light snow. Fog.
2014-Apr-16 13:30 330 6 0.1-0.0 Light snow. Fog.
2014-Apr-16 13:00 340 8 0.1-0.0 Light snow. Fog.
2014-Apr-16 12:30 330 8 0.1-0.0 Light snow. Fog.
2014-Apr-16 12:00 310 10 0.1-0.0 Light snow. Fog.
2014-Apr-16 11:30 310 9 0.1-0.0 Fog.
2014-Apr-16 11:00 320 8 0.1-0.0 Fog.
2014-Apr-16 10:30 310 8 0.1-0.0 Fog.
2014-Apr-16 10:00 310 8 0.1-0.0 Fog.
2014-Apr-16 09:30 320 7 0.1-0.0 Light snow. Fog.
2014-Apr-16 09:00 320 8 0.1-0.0 Light snow. Freezing fog.
2014-Apr-16 08:30 320 9 0.1-0.0 Light snow. Freezing fog.
2014-Apr-16 08:00 320 12 0.3-0.0 Light snow. Fog.
2014-Apr-16 07:30 320 8 0.4-0.0 Light snow. Fog.
2014-Apr-16 07:00 320 6 0.3-0.0 Light snow. Freezing fog.
2014-Apr-16 06:30 310 8 0.4-0.0 Freezing fog.
2014-Apr-16 06:00 320 9 0.4-0.0 Freezing fog.
2014-Apr-16 05:30 310 9 0.4-0.0 Freezing fog.
2014-Apr-16 05:00 320 7 0.1-0.0 Freezing fog.
2014-Apr-16 04:30 320 8 0.1-0.0 Freezing fog.
2014-Apr-16 04:00 310 7 0.1-0.0 Freezing fog.
2014-Apr-16 03:30 310 5 0.1-0.0 Freezing fog.
2014-Apr-16 03:00 330 5 0.2-0.0 Freezing fog.
2014-Apr-16 02:30 310 6 0.1-0.0 Freezing fog.
2014-Apr-16 02:00 0.1-0.0 Freezing fog.
2014-Apr-16 01:30 320 5 0.1-0.0 Freezing fog.
2014-Apr-16 01:00 320 6 0.1-0.0 Freezing fog.
2014-Apr-16 00:30 330 4 0.1-0.0 Fog.
2014-Apr-16 00:00 320 5 0.1-0.0 Fog.
2014-Apr-15 23:30 310 7 0.1-0.0 Fog.
2014-Apr-15 23:00 310 8 0.1-0.0 Fog.
2014-Apr-15 22:30 310 7 0.2-0.0 Fog.
2014-Apr-15 22:00 310 7 0.1-0.0 Fog.
2014-Apr-15 21:00 310 6 0.3-0.0 Fog.
2014-Apr-15 20:30 310 7 0.1-0.0 Fog.
2014-Apr-15 20:00 320 6 0.1-0.0 Fog.
2014-Apr-15 19:30 300 6 1.1-0.0 Light snow. Mist.
2014-Apr-15 19:00 310 5 1.1-0.0 Light snow. Mist.
2014-Apr-15 18:30 310 6 0.5-0.0 Light snow. Mist.
2014-Apr-15 18:00 310 5 0.5-0.0 Light snow. Mist.
2014-Apr-15 17:30 290 4 1.1-0.0 Light snow. Mist.
2014-Apr-15 17:00 320 6 0.5-0.0 Light snow. Mist.
2014-Apr-15 16:30 340 3 1.1 1.0 Mist.
2014-Apr-15 16:00 320 7 0.5 1.0 Light snow. Mist.
2014-Apr-15 15:30 320 4 1.6 1.0 Light snow. Mist.
2014-Apr-15 15:00 320 4 1.6 1.0 Mist.
2014-Apr-15 14:30 340 6 0.5 1.0 Light snow. Mist.
2014-Apr-15 14:00 320 7 0.5 1.0 Light snow. Mist.
2014-Apr-15 13:30 310 7 1.1 1.0 Light snow. Mist.
2014-Apr-15 13:00 300 6 2.2 2.0 Mist.
2014-Apr-15 12:30 320 5 1.1 2.0 Mist.
2014-Apr-15 12:00 320 7 0.1 1.0 Light snow. Fog.
2014-Apr-15 11:30 320 9 0.1 1.0 Light snow. Fog.
2014-Apr-15 11:00 310 7 0.1 1.0 Light snow. Fog.
2014-Apr-15 10:30 310 5 0.2 1.0 Light snow. Fog.
2014-Apr-15 09:30 280 4 0.4 1.0 Light snow. Fog.
2014-Apr-15 09:00 0.2 3.0 Light snow. Fog.
2014-Apr-15 08:30 0.2 1.0 Light snow. Fog.
2014-Apr-15 08:00 0.1-0.0 Snow. Fog.
2014-Apr-15 07:30 0.1-0.0 Snow. Freezing fog.
2014-Apr-15 07:00 310 4 0.1-0.0 Light snow. Freezing fog.
2014-Apr-15 06:30 300 3 0.1-0.0 Light snow. Fog.
2014-Apr-15 06:00 290 3 0.1-0.0 Light snow. Freezing fog.
2014-Apr-15 05:30 300 3 0.1-0.0 Snow. Freezing fog.
2014-Apr-15 05:00 310 4 0.1-0.0 Snow. Fog.
2014-Apr-15 04:30 310 6 0.1-0.0 Snow. Fog.
2014-Apr-15 04:00 310 6 0.1-0.0 Light snow. Fog.
2014-Apr-15 03:30 300 6 0.1-0.0 Light snow. Fog.
2014-Apr-15 03:00 300 6 0.1 1.0 Light rain snow. Fog.
2014-Apr-15 02:30 300 7 0.4 1.0 Light rain snow. Fog.
2014-Apr-15 02:00 300 9 0.5 2.0 Light rain snow. Mist.
2014-Apr-15 01:30 320 11 0.5 2.0 Light rain snow. Mist.
2014-Apr-15 01:00 310 13 2.2 2.0 Light rain snow. Mist.
2014-Apr-15 00:30 310 16 3.2 3.0 Light rain.
2014-Apr-15 00:00 310 14 3.2 3.0
2014-Apr-14 23:30 310 16 3.2 5.0
2014-Apr-14 23:00 350 8 5.4 6.0 Light rain.
2014-Apr-14 22:30 350 8 5.4 8.0 Light rain.
2014-Apr-14 22:00 240 8 5.410.0